小惑星A/2017 U7

A/2017 U7

English version
Home page
Updated on August 19, 2019

---------------------------------------------------------------------

・ プロフィール

発見日 2017年10月29日
発見光度 20.1等
発見者 Pan-STARRS 1 telescope (Haleakala)

・ 写真集

・ 軌道要素

Epoch 2019 Aug. 25.0 TT = JDT 2458720.5                                         
T 2019 Sept. 11.27213 TT                                Williams                
q   6.4173258            (2000.0)            P               Q                  
z  -0.0001212      Peri.  326.03138     +0.53149006     -0.59459915             
 +/-0.0000007      Node   276.23245     -0.57729608     -0.77546536             
e   1.0007779      Incl.  142.63530     -0.61987705     +0.21238014             
H    8.3                                                                        
From 327 observations 2017 Aug. 18-2019 Aug. 8, mean residual 0".4.             

・ 光度変化

        m1 = -12 + 5 logΔ + 30 log r

---------------------------------------------------------------------

軌道要素はM.P.E.C. 2019-Q02に掲載されたものです。
光度グラフはComet for Windowsで作成したものです。

---------------------------------------------------------------------

Copyright(C) Seiichi Yoshida (comet@aerith.net). All rights reserved.